1485892800.31,57574,10.63,73238.3,-6.43,-8.17,-8.17,0,*55
1485892801.5,57575,10.63,73234.8,-6.43,-8.17,-8.17,0,*54
1485892802.72,57576,10.63,73234.0,-6.43,-8.17,-8.07,0,*56
1485892803.95,57577,10.63,73228.0,-6.43,-8.17,-8.07,0,*57
1485892805.23,57578,10.63,73224.5,-6.45,-8.07,-8.07,0,*5F
1485892806.45,57579,10.63,73224.0,-6.45,-8.17,-8.17,0,*5E
1485892807.73,57580,10.63,73230.3,-6.45,-8.07,-8.07,0,*58
1485892808.92,57581,10.63,73236.3,-6.43,-8.17,-8.17,0,*5F
1485892810.14,57582,10.63,73238.8,-6.45,-8.21,-8.21,0,*5A
1485892811.37,57583,10.63,73240.3,-6.45,-8.25,-8.21,0,*5F
1485892812.58,57584,10.63,73228.3,-6.45,-8.25,-8.25,0,*5C
1485892813.8,57585,10.63,73228.5,-6.45,-8.17,-8.25,0,*5C
1485892815.02,57586,10.63,73232.5,-6.45,-8.21,-8.21,0,*5E
1485892816.24,57587,10.63,73238.3,-6.45,-8.17,-8.25,0,*5E
1485892817.44,57588,10.63,73234.5,-6.47,-8.17,-8.21,0,*57
1485892818.64,57589,10.63,73228.3,-6.47,-8.25,-8.25,0,*53
1485892819.83,57590,10.63,73228.8,-6.47,-8.25,-8.25,0,*5B
1485892821.03,57591,10.63,73226.5,-6.47,-8.21,-8.21,0,*5A
1485892822.22,57592,10.63,73230.0,-6.47,-8.21,-8.21,0,*59
1485892823.42,57593,10.63,73224.3,-6.47,-8.21,-8.25,0,*5C
1485892824.61,57594,10.63,73222.3,-6.47,-8.21,-8.17,0,*5A
1485892825.81,57595,10.63,73224.3,-6.47,-8.21,-8.21,0,*5E
1485892827.0,57596,10.63,73230.5,-6.47,-8.21,-8.25,0,*59
1485892828.2,57597,10.63,73226.0,-6.47,-8.25,-8.37,0,*5F
1485892829.4,57598,10.63,73228.5,-6.51,-8.21,-8.25,0,*50
1485892830.62,57599,10.63,73230.8,-6.51,-8.11,-8.25,0,*52
1485892831.82,57600,10.63,73232.0,-6.47,-8.21,-8.37,0,*56
1485892833.01,57601,10.63,73224.8,-6.51,-8.21,-8.25,0,*53
1485892834.21,57602,10.56,73228.0,-6.47,-8.21,-8.37,0,*54
1485892835.41,57603,10.63,73228.3,-6.51,-8.25,-8.25,0,*55
1485892836.63,57604,10.63,73234.8,-6.47,-8.07,-8.21,0,*51
1485892837.86,57605,10.63,73238.5,-6.47,-8.07,-8.21,0,*50
1485892839.05,57606,10.63,73242.5,-6.47,-8.21,-8.29,0,*5F
1485892840.27,57607,10.63,73236.8,-6.51,-8.11,-8.25,0,*56
1485892841.47,57608,10.63,73238.3,-6.51,-8.17,-8.25,0,*5F
1485892842.67,57609,10.63,73236.3,-6.47,-8.25,-8.37,0,*5B
1485892843.89,57610,10.63,73234.3,-6.47,-8.07,-8.33,0,*57
1485892845.12,57611,10.56,73232.5,-6.51,-8.11,-8.37,0,*52
1485892846.35,57612,10.63,73238.8,-6.51,-8.07,-8.21,0,*51
1485892847.6,57613,10.63,73236.0,-6.51,-8.07,-8.11,0,*53
1485892848.81,57614,10.63,73234.5,-6.47,-8.03,-8.17,0,*51
1485892850.06,57615,10.63,73234.0,-6.47,-8.03,-8.07,0,*51
1485892851.31,57616,10.63,73236.5,-6.51,-7.95,-8.03,0,*51
1485892852.56,57617,10.63,73240.8,-6.51,-7.99,-8.07,0,*58
1485892853.81,57618,10.63,73240.5,-6.51,-7.99,-8.07,0,*57
1485892855.04,57619,10.63,73236.5,-6.51,-8.07,-8.21,0,*5A
1485892856.26,57620,10.63,73228.8,-6.47,-8.11,-8.21,0,*50
1485892857.49,57621,10.63,73230.8,-6.51,-8.11,-8.21,0,*56
1485892858.68,57622,10.63,73230.5,-6.51,-8.21,-8.25,0,*52
1485892859.91,57623,10.63,73232.0,-6.51,-8.11,-8.37,0,*53
1485892861.13,57624,10.63,73236.0,-6.51,-8.11,-8.29,0,*5B
1485892862.36,57625,10.63,73236.5,-6.51,-8.11,-8.29,0,*5A
1485892863.58,57626,10.63,73240.3,-6.47,-8.07,-8.33,0,*52
1485892864.79,57627,10.63,73240.3,-6.47,-8.07,-8.33,0,*53
1485892865.99,57628,10.63,73238.3,-6.51,-8.21,-8.37,0,*5B
1485892867.19,57629,10.63,73240.5,-6.51,-8.21,-8.37,0,*5A
1485892868.42,57630,10.63,73240.3,-6.51,-8.25,-8.51,0,*56
1485892869.61,57631,10.63,73244.8,-6.51,-8.25,-8.67,0,*52
1485892870.79,57632,10.63,73246.8,-6.47,-8.33,-8.75,0,*52
1485892872.02,57633,10.63,73250.5,-6.47,-8.51,-9.01,0,*55
1485892873.25,57634,10.63,73238.5,-6.51,-8.55,-9.11,0,*50
1485892874.47,57635,10.56,73236.3,-6.51,-8.63,-9.11,0,*54
1485892875.67,57636,10.63,73236.3,-6.51,-8.63,-9.19,0,*5F
1485892876.87,57637,10.63,73238.5,-6.51,-8.67,-9.23,0,*53
1485892878.06,57638,10.63,73240.8,-6.51,-8.67,-9.31,0,*5F
1485892879.28,57639,10.63,73236.8,-6.51,-8.75,-9.49,0,*52
1485892880.52,57640,10.63,73242.0,-6.51,-8.81,-9.57,0,*58
1485892881.73,57641,10.63,73240.0,-6.51,-8.93,-9.71,0,*5E
1485892882.96,57642,10.63,73242.0,-6.51,-8.89,-9.61,0,*57
1485892884.16,57643,10.63,73248.3,-6.47,-8.89,-9.67,0,*57
1485892885.39,57644,10.56,73250.0,-6.47,-8.97,-9.83,0,*55
1485892886.59,57645,10.63,73248.0,-6.51,-9.01,-9.75,0,*54
1485892887.8,57646,10.63,73250.0,-6.51,-9.01,-9.71,0,*53
1485892889.03,57647,10.63,73254.3,-6.51,-8.93,-9.61,0,*59
1485892890.26,57648,10.63,73252.5,-6.51,-8.89,-9.61,0,*5D
1485892891.45,57649,10.56,73250.3,-6.51,-8.75,-9.31,0,*5A
1485892892.67,57650,10.63,73254.0,-6.51,-8.75,-9.11,0,*50
1485892893.89,57651,10.63,73256.3,-6.51,-8.81,-9.05,0,*5F
1485892895.09,57652,10.56,73250.5,-6.51,-8.75,-8.93,0,*59
1485892896.29,57653,10.56,73252.8,-6.51,-8.75,-8.89,0,*53
1485892897.49,57654,10.56,73248.0,-6.51,-8.63,-8.63,0,*57
1485892898.7,57655,10.56,73242.5,-6.53,-8.55,-8.67,0,*55
1485892899.9,57656,10.63,73242.3,-6.47,-8.33,-8.45,0,*53
1485892901.09,57657,10.63,73242.0,-6.47,-8.33,-8.45,0,*52
1485892902.31,57658,10.63,73242.5,-6.51,-8.25,-8.51,0,*58
1485892903.53,57659,10.63,73244.3,-6.47,-8.25,-8.51,0,*5E
1485892904.72,57660,10.56,73236.8,-6.47,-8.25,-8.59,0,*5C
1485892905.91,57661,10.56,73238.0,-6.51,-8.29,-8.75,0,*58
1485892907.11,57662,10.63,73240.8,-6.51,-8.37,-8.75,0,*54
1485892908.31,57663,10.63,73238.3,-6.47,-8.37,-8.89,0,*51
1485892909.51,57664,10.63,73238.0,-6.47,-8.37,-9.05,0,*53
1485892910.7,57665,10.63,73240.8,-6.51,-8.55,-9.31,0,*56
1485892911.93,57666,10.63,73236.8,-6.51,-8.63,-9.57,0,*50
1485892913.13,57667,10.56,73246.3,-6.47,-8.75,-10.09,0,*62
1485892914.33,57668,10.63,73252.8,-6.47,-8.97,-10.49,0,*65
1485892915.57,57669,10.63,73246.5,-6.51,-9.23,-10.71,0,*66
1485892916.83,57670,10.63,73244.0,-6.47,-9.41,-10.67,0,*6A
1485892918.08,57671,10.63,73242.3,-6.51,-9.61,-10.67,0,*6E
1485892919.31,57672,10.63,73242.8,-6.51,-9.57,-10.53,0,*6F
1485892920.51,57673,10.63,73236.3,-6.47,-9.67,-10.49,0,*61
1485892921.73,57674,10.63,73244.8,-6.51,-9.83,-10.45,0,*67
1485892922.94,57675,10.63,73240.8,-6.51,-9.75,-10.31,0,*6C
1485892924.15,57676,10.63,73242.8,-6.51,-9.71,-10.05,0,*6C
1485892925.36,57677,10.63,73246.8,-6.51,-9.57,-9.89,0,*55
1485892926.61,57678,10.56,73240.0,-6.51,-9.49,-9.83,0,*5F
1485892927.83,57679,10.63,73242.8,-6.51,-9.49,-9.89,0,*54
1485892929.03,57680,10.56,73246.3,-6.51,-9.71,-10.05,0,*65
1485892930.25,57681,10.63,73242.3,-6.51,-9.71,-10.27,0,*64
1485892931.5,57682,10.63,73252.0,-6.53,-10.01,-10.63,0,*5A
1485892932.71,57683,10.56,73248.0,-6.55,-10.45,-11.01,0,*58
1485892933.97,57684,10.63,73254.5,-6.53,-10.63,-11.19,0,*54
1485892935.2,57685,10.63,73254.5,-6.53,-11.19,-11.45,0,*50
1485892936.46,57686,10.63,73254.3,-6.53,-11.33,-11.45,0,*5B
1485892937.72,57687,10.63,73252.0,-6.53,-11.41,-11.29,0,*55
1485892938.95,57688,10.56,73254.3,-6.53,-11.19,-11.15,0,*58
1485892940.21,57689,10.56,73248.3,-6.53,-11.07,-10.93,0,*59
1485892941.45,57690,10.63,73246.0,-6.55,-10.93,-10.75,0,*53
1485892942.71,57691,10.63,73248.3,-6.53,-10.63,-10.57,0,*5B
1485892943.93,57692,10.63,73248.5,-6.55,-10.45,-10.35,0,*5E
1485892945.17,57693,10.63,73246.3,-6.53,-10.35,-10.05,0,*5D
1485892946.38,57694,10.63,73246.8,-6.53,-10.09,-9.89,0,*69
1485892947.62,57695,10.56,73248.5,-6.53,-9.93,-9.61,0,*55
1485892948.87,57696,10.56,73246.3,-6.53,-9.75,-9.53,0,*5F
1485892950.12,57697,10.63,73250.0,-6.53,-9.61,-9.75,0,*5F
1485892951.32,57698,10.56,73242.3,-6.55,-9.75,-9.75,0,*53
1485892952.54,57699,10.56,73242.3,-6.53,-9.67,-9.79,0,*5B
1485892953.76,57700,10.63,73242.8,-6.55,-9.61,-9.89,0,*55
1485892954.98,57701,10.63,73246.3,-6.53,-9.67,-10.05,0,*68
1485892956.23,57702,10.56,73244.3,-6.53,-9.53,-10.09,0,*60
1485892957.46,57703,10.63,73240.3,-6.55,-9.49,-10.45,0,*64
1485892958.69,57704,10.63,73242.5,-6.55,-9.75,-10.71,0,*6B
1485892959.89,57705,10.63,73238.8,-6.55,-9.89,-10.93,0,*65
1485892961.12,57706,10.63,73244.3,-6.55,-10.23,-11.33,0,*55
1485892962.36,57707,10.56,73240.5,-6.55,-10.31,-11.29,0,*5C
1485892963.6,57708,10.63,73244.5,-6.55,-10.63,-11.45,0,*5E
1485892964.83,57709,10.56,73238.5,-6.55,-10.85,-11.73,0,*52
1485892966.07,57710,10.63,73242.3,-6.55,-10.93,-11.77,0,*59
1485892967.31,57711,10.63,73246.8,-6.55,-11.01,-11.85,0,*5F
1485892968.54,57712,10.56,73240.8,-6.55,-11.15,-11.97,0,*5A
1485892969.78,57713,10.63,73246.3,-6.55,-11.41,-11.97,0,*5A
1485892971.03,57714,10.56,73240.8,-6.55,-11.45,-11.97,0,*59
1485892972.26,57715,10.63,73244.5,-6.55,-11.73,-12.03,0,*53
1485892973.52,57716,10.63,73242.8,-6.55,-11.73,-11.89,0,*51
1485892974.78,57717,10.56,73232.5,-6.55,-11.67,-11.77,0,*54
1485892976.06,57718,10.56,73242.0,-6.53,-11.59,-11.59,0,*5C
1485892977.3,57719,10.63,73244.5,-6.53,-11.41,-11.41,0,*5D
1485892978.51,57720,10.63,73246.0,-6.55,-11.19,-11.15,0,*5D
1485892979.74,57721,10.56,73244.0,-6.53,-10.89,-10.89,0,*56
1485892981.0,57722,10.63,73244.5,-6.53,-10.89,-10.75,0,*56
1485892982.21,57723,10.63,73246.8,-6.55,-11.01,-10.85,0,*5F
1485892983.47,57724,10.56,73242.3,-6.53,-11.29,-10.93,0,*53
1485892984.74,57725,10.63,73240.0,-6.55,-11.33,-10.75,0,*57
1485892986.0,57726,10.63,73242.3,-6.53,-11.41,-10.75,0,*57
1485892987.27,57727,10.56,73242.0,-6.53,-11.41,-10.63,0,*51
1485892988.53,57728,10.63,73242.3,-6.53,-11.33,-10.57,0,*5C
1485892989.74,57729,10.56,73242.3,-6.55,-11.15,-10.49,0,*50
1485892991.01,57730,10.56,73236.0,-6.53,-11.07,-10.35,0,*56
1485892992.24,57731,10.56,73238.0,-6.53,-10.85,-10.05,0,*5F
1485892993.46,57732,10.56,73240.0,-6.53,-10.45,-9.79,0,*63
1485892994.68,57733,10.56,73242.5,-6.53,-10.09,-9.67,0,*65
1485892995.95,57734,10.63,73246.3,-6.53,-9.61,-9.37,0,*51
1485892997.2,57735,10.63,73250.0,-6.53,-9.23,-9.37,0,*56
1485892998.48,57736,10.56,73246.3,-6.53,-9.15,-9.37,0,*50
1485892999.73,57737,10.63,73246.5,-6.53,-9.23,-9.37,0,*54
1485893000.99,57738,10.63,73240.8,-6.53,-9.37,-9.67,0,*5B
1485893002.2,57739,10.63,73248.0,-6.53,-9.67,-9.89,0,*5F
1485893003.42,57740,10.56,73250.5,-6.53,-9.89,-9.93,0,*5A
1485893004.65,57741,10.56,73246.8,-6.53,-10.05,-10.19,0,*5D
1485893005.89,57742,10.56,73246.8,-6.53,-10.35,-10.45,0,*54
1485893007.14,57743,10.56,73244.8,-6.53,-10.75,-10.85,0,*5D
1485893008.35,57744,10.56,73248.5,-6.51,-11.11,-11.15,0,*53
1485893009.61,57745,10.63,73252.8,-6.51,-11.85,-11.55,0,*5B
1485893010.88,57746,10.56,73252.3,-6.53,-12.15,-11.33,0,*50
1485893012.12,57747,10.56,73250.8,-6.55,-12.65,-11.19,0,*58
1485893013.35,57748,10.56,73250.8,-6.53,-12.25,-10.85,0,*51
1485893014.63,57749,10.63,73256.5,-6.53,-12.11,-10.71,0,*5C
1485893015.9,57750,10.56,73256.3,-6.55,-12.15,-10.63,0,*55
1485893017.16,57751,10.56,73252.8,-6.53,-12.29,-10.63,0,*5D
1485893018.38,57752,10.56,73256.0,-6.55,-12.39,-10.35,0,*5A
1485893019.63,57753,10.63,73256.0,-6.53,-11.89,-9.93,0,*61
1485893020.89,57754,10.56,73260.0,-6.53,-11.33,-9.67,0,*6C
1485893022.17,57755,10.63,73262.0,-6.53,-10.75,-9.53,0,*69
1485893023.42,57756,10.56,73258.0,-6.53,-10.31,-9.41,0,*69
1485893024.62,57757,10.56,73258.5,-6.55,-9.79,-9.23,0,*5E
1485893025.87,57758,10.56,73252.8,-6.53,-9.41,-9.05,0,*58
1485893027.09,57759,10.63,73256.8,-6.53,-9.05,-8.71,0,*5B
1485893028.31,57760,10.56,73250.0,-6.53,-8.71,-8.55,0,*55
1485893029.51,57761,10.56,73248.5,-6.55,-8.67,-8.41,0,*50
1485893030.72,57762,10.63,73250.8,-6.53,-8.55,-8.33,0,*51
1485893031.95,57763,10.63,73250.3,-6.53,-8.55,-8.41,0,*55
1485893033.16,57764,10.63,73246.3,-6.53,-8.59,-8.41,0,*5E
1485893034.38,57765,10.56,73240.0,-6.53,-8.45,-8.33,0,*57
1485893035.6,57766,10.56,73240.0,-6.53,-8.45,-8.41,0,*51
1485893036.82,57767,10.56,73238.3,-6.53,-8.41,-8.41,0,*54
1485893038.04,57768,10.56,73240.8,-6.53,-8.45,-8.41,0,*5F
1485893039.26,57769,10.56,73236.8,-6.53,-8.55,-8.41,0,*5F
1485893040.49,57770,10.63,73236.3,-6.53,-8.41,-8.45,0,*56
1485893041.7,57771,10.56,73228.5,-6.53,-8.41,-8.33,0,*56
1485893042.92,57772,10.56,73230.5,-6.53,-8.41,-8.29,0,*5E
1485893044.13,57773,10.63,73230.3,-6.53,-8.33,-8.33,0,*51
1485893045.34,57774,10.63,73228.3,-6.53,-8.33,-8.33,0,*56
1485893046.56,57775,10.56,73222.3,-6.53,-8.29,-8.33,0,*5C
1485893047.77,57776,10.56,73218.0,-6.53,-8.33,-8.45,0,*55
1485893048.99,57777,10.63,73226.0,-6.53,-8.45,-8.59,0,*58
1485893050.19,57778,10.56,73224.5,-6.55,-8.41,-8.59,0,*55
1485893051.39,57779,10.56,73224.3,-6.55,-8.55,-8.85,0,*50
1485893052.61,57780,10.56,73214.8,-6.53,-8.67,-8.97,0,*52
1485893053.84,57781,10.56,73216.0,-6.53,-8.85,-9.27,0,*55
1485893055.07,57782,10.56,73218.0,-6.55,-9.05,-9.49,0,*51
1485893056.35,57783,10.56,73212.3,-6.53,-9.15,-9.61,0,*5D
1485893057.57,57784,10.63,73218.8,-6.53,-9.67,-9.89,0,*59
1485893058.79,57785,10.63,73232.0,-6.53,-10.05,-10.23,0,*5C
1485893060.02,57786,10.56,73226.0,-6.53,-10.01,-9.93,0,*68
1485893061.27,57787,10.63,73232.0,-6.53,-9.79,-9.53,0,*52
1485893062.49,57788,10.56,73226.8,-6.55,-9.49,-9.05,0,*5B
1485893063.72,57789,10.63,73230.0,-6.55,-9.15,-8.93,0,*5D
1485893064.95,57790,10.56,73230.0,-6.53,-9.05,-8.97,0,*56
1485893066.17,57791,10.56,73230.8,-6.53,-8.97,-9.05,0,*57
1485893067.42,57792,10.56,73226.8,-6.53,-8.97,-9.11,0,*51
1485893068.64,57793,10.56,73230.8,-6.53,-8.97,-9.05,0,*55
1485893069.86,57794,10.63,73234.0,-6.53,-8.97,-9.05,0,*52
1485893071.07,57795,10.63,73232.0,-6.55,-8.93,-9.05,0,*51
1485893072.29,57796,10.63,73234.3,-6.53,-8.93,-9.05,0,*54
1485893073.52,57797,10.56,73224.8,-6.55,-8.81,-9.05,0,*50
1485893074.73,57798,10.56,73228.8,-6.55,-8.85,-8.93,0,*55
1485893075.95,57799,10.56,73226.8,-6.53,-8.67,-8.85,0,*59
1485893077.16,57800,10.63,73220.8,-6.53,-8.45,-8.67,0,*5A
1485893078.38,57801,10.56,73222.8,-6.53,-8.45,-8.55,0,*5A
1485893079.57,57802,10.56,73224.0,-6.55,-8.29,-8.33,0,*55
1485893080.77,57803,10.63,73224.3,-6.55,-8.25,-8.29,0,*53
1485893081.97,57804,10.56,73212.8,-6.55,-8.17,-8.17,0,*58
1485893083.19,57805,10.56,73212.8,-6.55,-8.11,-8.17,0,*5F
1485893084.44,57806,10.56,73208.5,-6.53,-8.11,-8.17,0,*5A
1485893085.69,57807,10.56,73202.3,-6.55,-8.11,-8.11,0,*5B
1485893086.94,57808,10.56,73202.5,-6.55,-8.03,-8.11,0,*57
1485893088.19,57809,10.56,73202.8,-6.55,-8.11,-8.11,0,*55
1485893089.47,57810,10.63,73208.5,-6.53,-8.11,-8.11,0,*5B
1485893090.73,57811,10.56,73200.8,-6.53,-8.03,-8.03,0,*5A
1485893091.98,57812,10.56,73202.3,-6.55,-7.99,-7.99,0,*5F
1485893093.25,57813,10.56,73198.3,-6.53,-8.11,-8.03,0,*5B
1485893094.5,57814,10.56,73206.3,-6.55,-8.11,-8.11,0,*59
1485893095.75,57815,10.56,73190.3,-6.55,-8.11,-8.03,0,*5B
1485893096.98,57816,10.56,73190.8,-6.55,-8.25,-8.11,0,*5C
1485893098.19,57817,10.56,73188.0,-6.53,-8.33,-8.25,0,*5B
1485893099.41,57818,10.63,73202.5,-6.53,-8.55,-8.25,0,*54
1485893100.63,57819,10.63,73196.8,-6.53,-8.71,-8.33,0,*54
1485893101.87,57820,10.56,73194.5,-6.53,-8.81,-8.33,0,*51
1485893103.07,57821,10.56,73200.8,-6.55,-8.93,-8.29,0,*5E
1485893104.3,57822,10.56,73204.5,-6.53,-8.85,-8.29,0,*5C
1485893105.5,57823,10.56,73214.8,-6.55,-8.71,-8.33,0,*5B
1485893106.72,57824,10.56,73208.3,-6.53,-8.67,-8.45,0,*5C
1485893107.92,57825,10.56,73214.0,-6.55,-8.67,-8.45,0,*5B
1485893109.14,57826,10.56,73210.5,-6.53,-8.71,-8.67,0,*59
1485893110.36,57827,10.56,73214.5,-6.53,-8.85,-8.71,0,*54
1485893111.59,57828,10.56,73216.3,-6.53,-8.93,-8.93,0,*50
1485893112.81,57829,10.56,73216.5,-6.53,-8.97,-8.97,0,*51
1485893114.03,57830,10.56,73216.8,-6.53,-8.97,-9.05,0,*53
1485893115.25,57831,10.56,73218.3,-6.53,-8.97,-9.23,0,*56
1485893116.45,57832,10.56,73216.8,-6.55,-8.97,-9.23,0,*53
1485893117.65,57833,10.56,73216.0,-6.55,-8.97,-9.23,0,*52
1485893118.9,57834,10.56,73218.5,-6.53,-8.97,-9.37,0,*56
1485893120.12,57835,10.56,73218.5,-6.53,-8.97,-9.27,0,*56
1485893121.36,57836,10.56,73218.0,-6.53,-8.97,-9.15,0,*54
1485893122.59,57837,10.63,73218.0,-6.53,-8.93,-9.05,0,*50
1485893123.81,57838,10.63,73212.3,-6.53,-8.97,-9.05,0,*5B
1485893125.04,57839,10.56,73214.0,-6.53,-8.93,-9.05,0,*5E
1485893126.27,57840,10.56,73212.0,-6.55,-8.97,-9.11,0,*57
1485893127.51,57841,10.56,73204.8,-6.53,-8.97,-9.11,0,*50
1485893128.77,57842,10.56,73210.0,-6.53,-9.05,-9.11,0,*59
1485893129.97,57843,10.56,73204.8,-6.55,-9.05,-9.23,0,*5F
1485893131.25,57844,10.56,73204.3,-6.53,-9.11,-9.37,0,*5E
1485893132.53,57845,10.56,73204.0,-6.53,-9.15,-9.53,0,*59
1485893133.78,57846,10.56,73204.8,-6.53,-9.37,-9.67,0,*5D
1485893135.02,57847,10.56,73204.5,-6.53,-9.53,-9.89,0,*5E
1485893136.26,57848,10.63,73210.5,-6.53,-9.75,-10.19,0,*64
1485893137.51,57849,10.56,73208.5,-6.53,-10.09,-10.63,0,*5B
1485893138.77,57850,10.56,73212.3,-6.53,-10.35,-10.75,0,*5B
1485893140.0,57851,10.56,73210.3,-6.53,-10.57,-10.85,0,*51
1485893141.29,57852,10.56,73204.8,-6.53,-10.63,-10.75,0,*5A
1485893142.55,57853,10.56,73200.0,-6.53,-10.49,-10.63,0,*54
1485893143.79,57854,10.56,73204.8,-6.53,-10.35,-10.49,0,*50
1485893145.02,57855,10.56,73204.3,-6.53,-10.49,-10.57,0,*55
1485893146.28,57856,10.56,73210.0,-6.53,-10.71,-11.19,0,*56
1485893147.56,57857,10.56,73210.5,-6.53,-11.33,-11.77,0,*58
1485893148.84,57858,10.56,73206.3,-6.53,-11.33,-11.77,0,*57
1485893150.08,57859,10.56,73206.8,-6.55,-11.41,-11.89,0,*54
1485893151.34,57860,10.56,73204.0,-6.53,-11.45,-11.59,0,*51
1485893152.57,57861,10.56,73206.8,-6.53,-11.19,-11.15,0,*51
1485893153.83,57862,10.56,73204.3,-6.47,-10.75,-10.75,0,*5B
1485893155.04,57863,10.56,73208.8,-6.51,-10.45,-10.45,0,*5D
1485893156.28,57864,10.56,73214.3,-6.51,-10.27,-10.41,0,*5A
1485893157.49,57865,10.56,73210.5,-6.51,-10.01,-10.15,0,*5E
1485893158.7,57866,10.56,73208.5,-6.53,-9.89,-9.93,0,*51
1485893159.92,57867,10.56,73210.8,-6.51,-9.61,-9.75,0,*5C
1485893161.15,57868,10.56,73214.0,-6.51,-9.37,-9.75,0,*50
1485893162.35,57869,10.56,73216.5,-6.51,-9.23,-9.75,0,*54
1485893163.6,57870,10.56,73212.0,-6.53,-9.37,-9.93,0,*53
1485893164.86,57871,10.56,73216.0,-6.53,-9.41,-10.09,0,*68
1485893166.09,57872,10.56,73216.8,-6.51,-9.57,-10.27,0,*62
1485893167.31,57873,10.56,73222.8,-6.51,-9.61,-10.53,0,*65
1485893168.52,57874,10.56,73224.0,-6.51,-10.01,-10.97,0,*54
1485893169.73,57875,10.56,73224.3,-6.51,-10.31,-11.23,0,*58
1485893170.97,57876,10.56,73230.0,-6.51,-10.71,-11.41,0,*5B
1485893172.23,57877,10.56,73230.0,-6.51,-11.29,-11.93,0,*59
1485893173.47,57878,10.56,73238.5,-6.51,-11.93,-12.47,0,*5D
1485893174.68,57879,10.56,73238.3,-6.51,-12.39,-12.93,0,*56
1485893175.91,57880,10.56,73232.0,-6.51,-12.61,-12.93,0,*5D
1485893177.17,57881,10.56,73230.0,-6.53,-13.11,-13.37,0,*57
1485893178.4,57882,10.56,73230.0,-6.47,-13.61,-13.93,0,*58
1485893179.61,57883,10.56,73232.8,-6.51,-14.37,-14.19,0,*5F
1485893180.82,57884,10.56,73230.3,-6.51,-14.37,-14.23,0,*51
1485893182.07,57885,10.56,73226.5,-6.51,-14.97,-14.51,0,*5F
1485893183.28,57886,10.56,73230.5,-6.51,-15.07,-14.33,0,*50
1485893184.5,57887,10.56,73234.8,-6.51,-15.21,-13.93,0,*58
1485893185.7,57888,10.56,73230.0,-6.51,-15.25,-13.65,0,*5A
1485893186.93,57889,10.56,73230.3,-6.51,-14.79,-13.07,0,*57
1485893188.17,57890,10.56,73226.0,-6.51,-14.51,-13.11,0,*52
1485893189.41,57891,10.56,73226.5,-6.47,-14.19,-13.33,0,*58
1485893190.65,57892,10.56,73226.8,-6.51,-14.47,-14.19,0,*58
1485893191.88,57893,10.56,73228.3,-6.51,-15.11,-14.93,0,*59
1485893193.11,57894,10.56,73228.8,-6.51,-15.71,-15.35,0,*55
1485893194.34,57895,10.56,73226.8,-6.51,-16.31,-15.67,0,*54
1485893195.56,57896,10.56,73226.0,-6.51,-17.11,-16.45,0,*57
1485893196.83,57897,10.56,73228.5,-6.47,-17.45,-17.21,0,*53
1485893198.03,57898,10.56,73230.8,-6.51,-18.49,-18.17,0,*52
1485893199.26,57899,10.56,73232.5,-6.51,-17.93,-17.73,0,*56
1485893200.48,57900,10.56,73224.8,-6.51,-17.35,-17.35,0,*59
1485893201.74,57901,10.56,73230.5,-6.53,-17.03,-16.89,0,*59
1485893203.0,57902,10.56,73230.3,-6.53,-17.03,-16.79,0,*55
1485893204.25,57903,10.56,73236.5,-6.53,-16.93,-16.65,0,*51
1485893205.48,57904,10.56,73232.0,-6.53,-16.93,-16.59,0,*59
1485893206.72,57905,10.56,73228.8,-6.53,-16.45,-16.75,0,*5D
1485893207.95,57906,10.56,73226.8,-6.51,-16.27,-16.55,0,*5A
1485893209.19,57907,10.56,73228.3,-6.51,-17.03,-16.83,0,*57
1485893210.46,57908,10.56,73228.8,-6.53,-17.21,-16.75,0,*53
1485893211.69,57909,10.56,73224.3,-6.51,-17.17,-16.45,0,*56
1485893212.9,57910,10.56,73224.5,-6.51,-16.41,-15.99,0,*5E
1485893214.14,57911,10.56,73226.5,-6.51,-16.75,-16.09,0,*52
1485893215.38,57912,10.56,73218.5,-6.51,-17.03,-16.55,0,*58
1485893216.62,57913,10.56,73220.3,-6.53,-16.59,-16.59,0,*59
1485893217.85,57914,10.56,73232.3,-6.51,-16.27,-15.99,0,*5A
1485893219.12,57915,10.56,73228.5,-6.51,-16.13,-15.81,0,*55
1485893220.35,57916,10.56,73242.3,-6.51,-15.95,-16.13,0,*53
1485893221.61,57917,10.56,73232.8,-6.53,-14.97,-14.89,0,*52
1485893222.86,57918,10.56,73228.5,-6.51,-12.65,-13.33,0,*52
1485893224.13,57919,10.56,73228.0,-6.51,-11.85,-12.53,0,*59
1485893225.36,57920,10.56,73226.0,-6.51,-10.97,-11.97,0,*5A
1485893226.6,57921,10.56,73238.0,-6.51,-10.31,-11.55,0,*59
1485893227.83,57922,10.56,73240.8,-6.51,-10.15,-11.37,0,*58
1485893229.03,57923,10.56,73238.5,-6.51,-10.01,-10.85,0,*54
1485893230.23,57924,10.56,73236.3,-6.47,-9.93,-10.53,0,*6C
1485893231.43,57925,10.56,73238.0,-6.51,-9.97,-10.53,0,*6E
1485893232.66,57926,10.56,73234.0,-6.51,-9.97,-10.41,0,*6E
1485893233.86,57927,10.56,73234.3,-6.51,-9.97,-10.31,0,*68
1485893235.07,57928,10.56,73230.8,-6.51,-10.05,-10.15,0,*52
1485893236.26,57929,10.56,73226.8,-6.51,-9.97,-9.71,0,*5A
1485893237.46,57930,10.56,73236.3,-6.51,-9.75,-9.31,0,*5A
1485893238.68,57931,10.56,73232.5,-6.51,-9.45,-9.01,0,*5B
1485893239.91,57932,10.56,73238.8,-6.51,-9.37,-8.93,0,*57
1485893241.14,57933,10.56,73228.0,-6.47,-9.15,-8.85,0,*56
1485893242.36,57934,10.56,73228.8,-6.51,-9.05,-8.81,0,*53
1485893243.56,57935,10.56,73226.5,-6.51,-8.93,-8.63,0,*50
1485893244.76,57936,10.56,73230.0,-6.51,-8.93,-8.75,0,*54
1485893245.96,57937,10.56,73222.5,-6.51,-8.89,-8.63,0,*59
1485893247.15,57938,10.56,73222.5,-6.51,-8.75,-8.55,0,*50
1485893248.35,57939,10.56,73230.8,-6.51,-8.67,-8.37,0,*56
1485893249.55,57940,10.56,73224.8,-6.51,-8.55,-8.37,0,*59
1485893250.75,57941,10.56,73230.3,-6.51,-8.55,-8.29,0,*57
1485893251.98,57942,10.56,73228.3,-6.51,-8.51,-8.25,0,*5C
1485893253.17,57943,10.56,73228.3,-6.51,-8.41,-8.21,0,*58
1485893254.37,57944,10.56,73228.0,-6.51,-8.37,-8.21,0,*5E
1485893255.57,57945,10.56,73230.0,-6.47,-8.33,-8.21,0,*5C
1485893256.76,57946,10.56,73226.3,-6.51,-8.37,-8.25,0,*58
1485893257.96,57947,10.56,73228.0,-6.51,-8.37,-8.21,0,*5D
1485893259.19,57948,10.56,73226.3,-6.51,-8.25,-8.11,0,*52
1485893260.42,57949,10.56,73226.0,-6.47,-8.21,-8.07,0,*57
1485893261.67,57950,10.56,73224.0,-6.51,-8.11,-8.11,0,*5C
1485893262.92,57951,10.56,73224.8,-6.47,-8.07,-8.07,0,*5A
1485893264.18,57952,10.56,73212.3,-6.51,-8.11,-8.07,0,*59
1485893265.44,57953,10.56,73216.0,-6.51,-8.11,-8.07,0,*58
1485893266.69,57954,10.56,73224.3,-6.51,-8.11,-7.99,0,*57
1485893267.94,57955,10.56,73216.8,-6.51,-8.11,-8.07,0,*5E
1485893269.19,57956,10.56,73220.8,-6.51,-8.07,-7.99,0,*52
1485893270.43,57957,10.56,73220.3,-6.47,-7.95,-7.95,0,*5C
1485893271.68,57958,10.56,73218.5,-6.51,-8.07,-7.99,0,*5C
1485893272.93,57959,10.56,73222.8,-6.51,-7.99,-7.99,0,*55
1485893274.19,57960,10.56,73226.8,-6.51,-8.07,-8.07,0,*5F
1485893275.43,57961,10.56,73220.0,-6.47,-7.99,-7.99,0,*59
1485893276.69,57962,10.56,73212.5,-6.51,-8.07,-8.07,0,*5D
1485893277.94,57963,10.56,73216.8,-6.47,-8.07,-7.95,0,*5F
1485893279.18,57964,10.56,73226.3,-6.47,-8.07,-8.03,0,*58
1485893280.43,57965,10.56,73218.5,-6.47,-8.07,-8.03,0,*59
1485893281.65,57966,10.56,73220.5,-6.47,-8.17,-8.03,0,*5B
1485893282.85,57967,10.56,73216.0,-6.47,-8.17,-8.17,0,*5F
1485893284.04,57968,10.56,73216.8,-6.47,-8.25,-8.17,0,*51
1485893285.24,57969,10.56,73226.3,-6.51,-8.41,-8.25,0,*54
1485893286.43,57970,10.56,73218.8,-6.47,-8.33,-8.21,0,*5A
1485893287.63,57971,10.56,73216.8,-6.51,-8.41,-8.25,0,*5D
1485893288.82,57972,10.56,73222.3,-6.47,-8.37,-8.25,0,*58
1485893290.02,57973,10.56,73208.8,-6.47,-8.37,-8.25,0,*59
1485893291.21,57974,10.56,73220.5,-6.47,-8.33,-8.25,0,*5A
1485893292.41,57975,10.56,73212.5,-6.47,-8.37,-8.25,0,*5F
1485893293.6,57976,10.56,73220.5,-6.47,-8.33,-8.21,0,*5C
1485893294.79,57977,10.56,73220.0,-6.47,-8.37,-8.25,0,*5D
1485893296.02,57978,10.56,73212.3,-6.47,-8.51,-8.25,0,*52
1485893297.22,57979,10.56,73214.5,-6.47,-8.63,-8.45,0,*54
1485893298.44,57980,10.56,73208.8,-6.47,-8.75,-8.51,0,*50
1485893299.67,57981,10.56,73200.0,-6.47,-8.89,-8.51,0,*52
1485893300.9,57982,10.56,73200.3,-6.47,-9.15,-8.85,0,*5C